Location: Mentone
(34.5413°N, 85.5351°W)
Time: 10:37:13
(UTC-05:00)

Cosmos 2150 Rocket - Visible Passes

Search period start: 03 July 2015 00:00
Search period end: 13 July 2015 00:00
Orbit: 749 x 809 km, 74.0° (Epoch: 02 July)

Date Brightness Start Highest point End Pass type
(mag) Time Alt. Az. Time Alt. Az. Time Alt. Az.
03 Jul 7.1 02:38:22 10° NE 02:39:34 11° NE 02:41:07 10° ENE visible
03 Jul 4.0 04:17:18 10° NNW 04:22:45 85° WSW 04:28:07 10° SSE visible
04 Jul 4.6 03:43:41 10° N 03:49:03 59° ENE 03:54:19 10° SSE visible
05 Jul 5.5 03:10:17 10° N 03:15:14 36° ENE 03:20:09 10° SE visible
05 Jul 5.2 04:53:05 10° NW 04:57:22 23° W 05:01:25 10° SSW visible
06 Jul 6.3 02:37:09 10° NNE 02:41:18 23° ENE 02:45:32 10° ESE visible
06 Jul 4.6 04:18:47 10° NW 04:23:48 38° WSW 04:28:40 10° SSW visible
07 Jul 6.7 02:04:33 10° NNE 02:07:15 14° ENE 02:10:13 10° E visible
07 Jul 4.0 03:44:49 10° NNW 03:50:11 65° WSW 03:54:07 18° S visible
08 Jul 4.1 03:11:06 10° NNW 03:16:32 77° ENE 03:19:32 27° SSE visible
09 Jul 4.9 02:37:34 10° N 02:42:46 46° ENE 02:45:12 28° SE visible
09 Jul 5.5 04:21:08 10° NW 04:24:43 18° W 04:25:37 17° WSW visible
10 Jul 5.7 02:04:17 10° N 02:08:54 29° ENE 02:11:04 22° ESE visible
10 Jul 4.9 03:46:33 10° NW 03:51:11 29° W 03:51:30 29° WSW visible
11 Jul 6.3 01:31:21 10° NNE 01:34:55 18° ENE 01:37:05 15° E visible
11 Jul 4.3 03:12:25 10° NNW 03:17:31 49° W 03:17:31 49° W visible
12 Jul 6.7 00:59:26 10° NE 01:00:49 11° NE 01:02:33 10° ENE visible
12 Jul 4.0 02:38:34 10° NNW 02:43:38 77° NW 02:43:38 77° NW visible
